Volver al catálogo

DELTA 1 DEB

ActivoPO
NORAD 26845·DEBRIS·🇺🇸 United States

Lanzado Jun 12, 1975 desde Vandenberg Space Force Base

Loading…

Próximos Pases (próximas 24 horas)

TLE

ActualizadoSource: Space-Track

Época: Sep 13, 2026, 15:49 UTC

1 26845U 75052KZ  26256.65958356  .00000192  00000-0  81307-3 0  9996
2 26845  99.1861 143.0986 0439404  52.6581 336.8680 12.65503360469591

Sigue DELTA 1 DEB en tiempo real con AllMySat

Download on the App Store